Weather in Lgovskoye

Russia / Republic of Crimea     45°05′48″N   34°57′26″E
temp.,
°C
wind,
m/s
gust,
m/s
humid.,
%
clouds,
%
prec.,
mm/h
press.,
hPa
HPBL,
m
1 march, mon
mon100:00+2nw479574 0.3 1024476
03:00+1nw369587 0.6 1024388
06:000w249096 0.0 1024116
09:00+1nw477887 0.0 1025589
12:00+4nw446449 0.0 1026976
15:00+4n336771 0.1 1026814
18:00+2nne238690 0.3 1027435
21:000n129682 0.3 102874
2 march, tue
tue200:00−1nnw229629 0.0 103086
03:00−1nw229532 0.0 103091
06:00−1nw239555 0.0 1030111
09:00+1nw238230 0.0 1030280
12:00+4wnw34602 0.0 1030930
15:00+5w355912 0.0 10291046
18:00+3w367137 0.0 1027507
21:00+1wnw128363 0.0 102648
3 march, wed
wed300:000w277946 0.0 1024197
03:00+1wsw3128046 0.0 1023424
06:00+3wnw7138878 0.0 1021791
09:00+1nw7118489 0.1 1023923
12:00+3nnw8107293 0.1 10251149
15:00+5nnw685777 0.2 10261161
18:00+4nnw47620 0.0 1027676
21:00+1wnw23720 0.0 102964
4 march, thu
thu400:00+1w22700 0.0 102922
03:00+1wsw12670 0.0 102822
06:000sw12650 0.0 102722
09:00+3ssw24640 0.0 1027302
12:00+6ssw45607 0.0 1026915
15:00+6ssw56573 0.0 1024862
18:00+4ssw47690 0.0 1022466
21:00+2ssw58852 0.0 1021355
5 march, fri
fri500:00+2ssw598713 0.0 1020372
03:00+1ssw598614 0.0 1019308
06:00+1ssw589112 0.0 1018205
09:00+3ssw578612 0.0 1018323
12:00+6ssw587629 0.0 1017433
15:00+7ssw586833 0.0 1016420
18:00+5ssw698284 0.0 1015365
21:00+4ssw6119088 0.0 1015398